Volver al catálogo

DELTA 1 DEB

ActivoPO
NORAD 26830·DEBRIS·🇺🇸 United States

Lanzado Jun 12, 1975 desde Vandenberg Space Force Base

Loading…

Próximos Pases (próximas 24 horas)

TLE

ActualizadoSource: Space-Track

Época: Sep 13, 2026, 15:01 UTC

1 26830U 75052KJ  26256.62570162  .00000558  00000-0  13161-2 0  9990
2 26830  99.7204  34.1353 0136764 264.5181 109.1714 13.24955783686454

Sigue DELTA 1 DEB en tiempo real con AllMySat

Download on the App Store